Time,TemperatureF,DewpointF,PressureIn,WindDirection,WindDirectionDegrees,WindSpeedMPH,WindSpeedGustMPH,Humidity,HourlyPrecipIn,Conditions,Clouds,dailyrainin,SoftwareType,DateUTC
2013-10-21 00:23:00,47.0,-99.9,29.66,North,-999,11.0,13.0,-999,-99.99,,,-99.99,,2013-10-21 05:23:00,
2013-10-21 00:52:00,48.0,-99.9,29.66,North,-999,16.0,18.0,-999,-99.99,,,-99.99,,2013-10-21 05:52:00,
2013-10-21 01:22:00,47.0,-99.9,29.66,North,-999,13.0,16.0,-999,-99.99,,,-99.99,,2013-10-21 06:22:00,
2013-10-21 01:52:00,47.0,-99.9,29.67,North,-999,18.0,22.0,-999,-99.99,,,-99.99,,2013-10-21 06:52:00,
2013-10-21 02:00:00,47.0,-99.9,29.68,North,-999,20.0,25.0,-999,-99.99,,,-99.99,,2013-10-21 07:00:00,
2013-10-21 02:12:00,47.0,-99.9,29.67,North,-999,22.0,29.0,-999,-99.99,,,-99.99,,2013-10-21 07:12:00,
2013-10-21 02:22:00,47.0,-99.9,29.67,North,-999,22.0,29.0,-999,-99.99,,,-99.99,,2013-10-21 07:22:00,
2013-10-21 02:52:00,47.0,-99.9,29.68,North,-999,20.0,25.0,-999,-99.99,,,-99.99,,2013-10-21 07:52:00,
2013-10-21 03:22:00,46.0,-99.9,29.69,North,-999,22.0,29.0,-999,-99.99,,,-99.99,,2013-10-21 08:22:00,
2013-10-21 03:52:00,45.0,-99.9,29.70,North,-999,22.0,27.0,-999,-99.99,,,-99.99,,2013-10-21 08:52:00,
2013-10-21 04:11:00,45.0,-99.9,29.71,North,-999,22.0,31.0,-999,-99.99,,,-99.99,,2013-10-21 09:11:00,
2013-10-21 04:22:00,45.0,-99.9,29.71,North,-999,22.0,31.0,-999,-99.99,,,-99.99,,2013-10-21 09:22:00,
2013-10-21 04:54:00,45.0,-99.9,29.72,North,-999,25.0,31.0,-999,-99.99,,,-99.99,,2013-10-21 09:54:00,
2013-10-21 05:13:00,44.0,-99.9,29.73,North,-999,25.0,31.0,-999,-99.99,,,-99.99,,2013-10-21 10:13:00,
2013-10-21 05:23:00,44.0,-99.9,29.73,North,-999,25.0,31.0,-999,-99.99,,,-99.99,,2013-10-21 10:23:00,
2013-10-21 05:53:00,43.0,-99.9,29.75,North,-999,25.0,29.0,-999,-99.99,,,-99.99,,2013-10-21 10:53:00,
2013-10-21 06:12:00,43.0,-99.9,29.76,North,-999,22.0,29.0,-999,-99.99,,,-99.99,,2013-10-21 11:12:00,
2013-10-21 06:22:00,43.0,-99.9,29.76,North,-999,22.0,29.0,-999,-99.99,,,-99.99,,2013-10-21 11:22:00,
2013-10-21 06:52:00,43.0,-99.9,29.77,North,-999,22.0,25.0,-999,-99.99,,,-99.99,,2013-10-21 11:52:00,
2013-10-21 07:22:00,43.0,-99.9,29.77,North,-999,20.0,22.0,-999,-99.99,,,-99.99,,2013-10-21 12:22:00,
2013-10-21 07:52:00,43.0,-99.9,29.78,North,-999,20.0,27.0,-999,-99.99,,,-99.99,,2013-10-21 12:52:00,
2013-10-21 08:22:00,43.0,-99.9,29.78,North,-999,18.0,25.0,-999,-99.99,,,-99.99,,2013-10-21 13:22:00,
2013-10-21 08:52:00,42.0,-99.9,29.79,North,-999,20.0,25.0,-999,-99.99,,,-99.99,,2013-10-21 13:52:00,
2013-10-21 09:00:00,43.0,-99.9,29.80,North,-999,25.0,29.0,-999,-99.99,,,-99.99,,2013-10-21 14:00:00,
2013-10-21 09:52:00,43.0,-99.9,29.80,North,-999,25.0,29.0,-999,-99.99,,,-99.99,,2013-10-21 14:52:00,
2013-10-21 10:22:00,43.0,-99.9,29.80,North,-999,20.0,31.0,-999,-99.99,,,-99.99,,2013-10-21 15:22:00,
2013-10-21 10:43:00,43.0,-99.9,29.80,North,-999,20.0,27.0,-999,-99.99,,,-99.99,,2013-10-21 15:43:00,
2013-10-21 10:54:00,43.0,-99.9,29.80,North,-999,20.0,27.0,-999,-99.99,,,-99.99,,2013-10-21 15:54:00,
2013-10-21 11:13:00,43.0,-99.9,29.81,North,-999,20.0,25.0,-999,-99.99,,,-99.99,,2013-10-21 16:13:00,
2013-10-21 11:24:00,43.0,-99.9,29.81,North,-999,20.0,25.0,-999,-99.99,,,-99.99,,2013-10-21 16:24:00,
2013-10-21 11:54:00,43.0,-99.9,29.81,North,-999,22.0,29.0,-999,-99.99,,,-99.99,,2013-10-21 16:54:00,
2013-10-21 12:12:00,42.0,-99.9,29.82,North,-999,25.0,31.0,-999,-99.99,,,-99.99,,2013-10-21 17:12:00,
2013-10-21 12:22:00,42.0,-99.9,29.82,North,-999,25.0,31.0,-999,-99.99,,,-99.99,,2013-10-21 17:22:00,
2013-10-21 12:43:00,43.0,-99.9,29.82,North,-999,22.0,29.0,-999,-99.99,,,-99.99,,2013-10-21 17:43:00,
2013-10-21 12:53:00,43.0,-99.9,29.82,North,-999,22.0,29.0,-999,-99.99,,,-99.99,,2013-10-21 17:53:00,
2013-10-21 13:12:00,43.0,-99.9,29.81,North,-999,25.0,31.0,-999,-99.99,,,-99.99,,2013-10-21 18:12:00,
2013-10-21 13:22:00,43.0,-99.9,29.81,North,-999,25.0,31.0,-999,-99.99,,,-99.99,,2013-10-21 18:22:00,
2013-10-21 13:52:00,42.0,-99.9,29.81,North,-999,27.0,31.0,-999,-99.99,,,-99.99,,2013-10-21 18:52:00,
2013-10-21 14:22:00,42.0,-99.9,29.81,North,-999,27.0,34.0,-999,-99.99,,,-99.99,,2013-10-21 19:22:00,
2013-10-21 14:30:00,41.0,-99.9,29.81,North,-999,25.0,29.0,-999,-99.99,,,-99.99,,2013-10-21 19:30:00,
2013-10-21 14:53:00,41.0,-99.9,29.81,North,-999,25.0,31.0,-999,-99.99,,,-99.99,,2013-10-21 19:53:00,
2013-10-21 15:12:00,41.0,-99.9,29.81,North,-999,25.0,29.0,-999,-99.99,,,-99.99,,2013-10-21 20:12:00,
2013-10-21 15:22:00,41.0,-99.9,29.81,North,-999,25.0,29.0,-999,-99.99,,,-99.99,,2013-10-21 20:22:00,
2013-10-21 15:53:00,40.0,-99.9,29.81,North,-999,25.0,34.0,-999,-99.99,,,-99.99,,2013-10-21 20:53:00,
2013-10-21 16:12:00,40.0,-99.9,29.82,North,-999,22.0,31.0,-999,-99.99,,,-99.99,,2013-10-21 21:12:00,
2013-10-21 16:22:00,40.0,-99.9,29.82,North,-999,22.0,31.0,-999,-99.99,,,-99.99,,2013-10-21 21:22:00,
2013-10-21 16:44:00,40.0,-99.9,29.82,North,-999,25.0,31.0,-999,-99.99,,,-99.99,,2013-10-21 21:44:00,
2013-10-21 16:54:00,40.0,-99.9,29.82,North,-999,25.0,31.0,-999,-99.99,,,-99.99,,2013-10-21 21:54:00,
2013-10-21 17:24:00,40.0,-99.9,29.83,North,-999,25.0,31.0,-999,-99.99,,,-99.99,,2013-10-21 22:24:00,
2013-10-21 17:54:00,39.0,-99.9,29.83,North,-999,25.0,31.0,-999,-99.99,,,-99.99,,2013-10-21 22:54:00,
2013-10-21 18:00:00,40.0,-99.9,29.85,North,-999,27.0,34.0,-999,-99.99,,,-99.99,,2013-10-21 23:00:00,
2013-10-21 18:23:00,40.0,-99.9,29.85,North,-999,27.0,34.0,-999,-99.99,,,-99.99,,2013-10-21 23:23:00,
2013-10-21 18:53:00,40.0,-99.9,29.85,North,-999,27.0,34.0,-999,-99.99,,,-99.99,,2013-10-21 23:53:00,
2013-10-21 19:22:00,39.0,-99.9,29.85,North,-999,20.0,27.0,-999,-99.99,,,-99.99,,2013-10-22 00:22:00,
2013-10-21 19:42:00,39.0,-99.9,29.85,North,-999,20.0,27.0,-999,-99.99,,,-99.99,,2013-10-22 00:42:00,
2013-10-21 19:53:00,39.0,-99.9,29.85,North,-999,20.0,27.0,-999,-99.99,,,-99.99,,2013-10-22 00:53:00,
2013-10-21 20:22:00,39.0,-99.9,29.84,North,-999,22.0,29.0,-999,-99.99,,,-99.99,,2013-10-22 01:22:00,
2013-10-21 20:53:00,40.0,-99.9,29.84,North,-999,25.0,29.0,-999,-99.99,,,-99.99,,2013-10-22 01:53:00,
2013-10-21 21:52:00,39.0,-99.9,29.84,North,-999,25.0,31.0,-999,-99.99,,,-99.99,,2013-10-22 02:52:00,
2013-10-21 22:12:00,40.0,-99.9,29.83,North,-999,25.0,31.0,-999,-99.99,,,-99.99,,2013-10-22 03:12:00,
2013-10-21 22:23:00,40.0,-99.9,29.83,North,-999,25.0,31.0,-999,-99.99,,,-99.99,,2013-10-22 03:23:00,
2013-10-21 22:55:00,39.0,-99.9,29.83,North,-999,27.0,36.0,-999,-99.99,,,-99.99,,2013-10-22 03:55:00,
2013-10-21 23:00:00,39.0,-99.9,29.81,North,-999,27.0,31.0,-999,-99.99,,,-99.99,,2013-10-22 04:00:00,
2013-10-21 23:14:00,39.0,-99.9,29.82,North,-999,27.0,36.0,-999,-99.99,,,-99.99,,2013-10-22 04:14:00,
2013-10-21 23:25:00,39.0,-99.9,29.82,North,-999,27.0,36.0,-999,-99.99,,,-99.99,,2013-10-22 04:25:00,
2013-10-21 23:30:00,38.0,-99.9,29.81,North,-999,27.0,34.0,-999,-99.99,,,-99.99,,2013-10-22 04:30:00,
2013-10-21 23:55:00,39.0,-99.9,29.81,North,-999,27.0,31.0,-999,-99.99,,,-99.99,,2013-10-22 04:55:00,